Voltar ao catálogo

SRMSAT

AtivoRádio AmadorLEO
NORAD 37841·PAYLOAD·🇮🇳 India

Lançado Oct 12, 2011 de Satish Dhawan Space Centre

Loading…

Próximas Passagens (próximas 24 horas)

TLE

AtualizadoSource: AMSAT

Época: Sep 14, 2026, 01:51 UTC

1 37841U 11058D   26257.07776403  .00000374  00000-0  59220-4 0  9990
2 37841  19.9710 241.4257 0011984 101.9182 322.2174 14.11592249770397

Acompanhe SRMSAT em tempo real com AllMySat

Download on the App Store